Regional Weather Roundup
Issued by NWS

Home | Current Version | Previous Version | Graphics & Text | Print | Product List | Glossary On
Versions: 1 2 3 4 5 6 7 8 9 10 11 12 13 14 15 16 17 18 19 20 21 22 23 24 25 26 27 28 29 30 31 32 33 34 35 36 37 38 39 40 41 42 43 44 45 46 47 48 49 50
000
ASUS45 KCYS 311410
RWRWY

WYOMING REGIONAL WEATHER ROUNDUP
NATIONAL WEATHER SERVICE CHEYENNE WY
800 AM MDT FRI JUL 31 2015

NOTE:  "FAIR" INDICATES FEW OR NO CLOUDS BELOW 12,000 FEET
WITH NO SIGNIFICANT WEATHER AND/OR OBSTRUCTIONS TO VISIBILITY.

WYZ001-311500-
YELLOWSTONE NATIONAL PARK

CITY           SKY/WX    TMP DP  RH WIND       PRES   REMARKS
LK YELLOWSTONE   N/A     46  38  73 CALM      30.54S
W YELLOWSTONE  NOT AVBL

$$
WYZ002>013-054>058-071-098>099-311500-
NORTHERN WYOMING

CITY           SKY/WX    TMP DP  RH WIND       PRES   REMARKS
JACKSON        SUNNY     48  37  66 CALM      30.47R
CODY           FAIR      66  36  32 SW5       30.33S
GREYBULL       FAIR      62  43  49 CALM      30.27R
WORLAND        FAIR      64  31  28 SW6       30.28R
SHERIDAN       FAIR      63  45  51 CALM      30.26R
BUFFALO        FAIR      72  41  32 CALM      30.32R
GILLETTE         N/A     71  48  43 CALM      30.28R
HULETT         FAIR      63  45  51 NE7       30.30R
NEWCASTLE      FAIR      72  45  37 N3        30.28S

$$
WYZ014>020-022>026-101>103-311500-
CENTRAL WYOMING

CITY           SKY/WX    TMP DP  RH WIND       PRES   REMARKS
BIG PINEY      FAIR      50  33  52 CALM      30.47R
PINEDALE       FAIR      50  34  53 NW5       30.47S
DUBOIS         FAIR      50  30  46 NW13      30.48S
LANDER         FAIR      61  37  41 CALM      30.36R
RIVERTON       FAIR      66  34  30 NW7       30.37R
CASPER         FAIR      63  33  32 W5        30.36R
DOUGLAS        FAIR      62  42  47 NW9       30.34S

$$
WYZ021-027>030-104>119-311500-
SOUTHERN WYOMING

CITY           SKY/WX    TMP DP  RH WIND       PRES   REMARKS
EVANSTON       FAIR      59  25  27 SE6       30.45R
KEMMERER       FAIR      52  32  46 N9        30.47R
FORT BRIDGER   SUNNY     66  27  22 W3        30.47R
ROCK SPRINGS   FAIR      59  24  26 CALM      30.43R
DIXON          FAIR      61  32  32 E8        30.43S
RAWLINS        FAIR      59  33  37 E5        30.44S
SARATOGA       FAIR      55  36  47 E5        30.47R
LARAMIE        FAIR      59  45  59 SW6       30.47S
CHEYENNE       FAIR      68  54  60 NW5       30.39S
TORRINGTON     FAIR      61  52  72 CALM      30.28R
PINE BLUFFS    FAIR      61  55  82 CALM      30.34R

$$


USA.gov is the U.S. government's official web portal to all federal, state and local government web resources and services.